Weather Roundup
Issued by NWS Corpus Christi, TX

Home | Current Version | Previous Version | Text Only | Print | Product List | Glossary On
Versions: 1 2 3 4 5 6 7 8 9 10 11 12 13 14 15 16 17 18 19 20 21 22 23 24 25 26 27 28 29 30 31 32 33 34 35 36 37 38 39 40 41 42 43 44 45 46 47 48 49 50
000
ASUS44 KCRP 202010
HRRCRP

SOUTH TEXAS REGIONAL WEATHER ROUNDUP
NATIONAL WEATHER SERVICE CORPUS CHRISTI TX
300 PM CDT SAT SEP 20 2014


TXZ229>244-202100-
...CORPUS CHRISTI AREA OBSERVATIONS...

CITY           SKY/WX    TMP DP  RH WIND       PRES   REMARKS
CORPUS CHRISTI PTSUNNY   87  74  64 E14       29.88F HX  95
NAS CORPUS CHR MOSUNNY   88  79  74 E13       29.87F HX 103
ROCKPORT       PTSUNNY   89  75  63 E9        29.88F HX  99
KINGSVILLE NAS MOSUNNY   85  78  80 MISG      29.88F HX  96
ALICE          LGT RAIN  83  76  79 SE8       29.88F HX  91
FALFURRIAS     PTSUNNY  N/A N/A N/A NE16G23   29.87F
$$

...VICTORIA AREA OBSERVATIONS...

CITY           SKY/WX    TMP DP  RH WIND       PRES   REMARKS
VICTORIA       MOSUNNY   91  74  57 E9        29.89F HX 100
BEEVILLE       LGT RAIN  85  74  70 E12G18    29.89F HX  92
PLEASANTON     MOSUNNY   92  67  43 E8        29.89F HX  96
SAN ANTONIO    PTSUNNY   84  72  67 NE10      29.93F
$$

...LAREDO AREA OBSERVATIONS...

CITY           SKY/WX    TMP DP  RH WIND       PRES   REMARKS
LAREDO         PTSUNNY   91  71  51 NE9       29.89F HX  97
COTULLA        PTSUNNY   91  70  49 NE9       29.88F HX  96
DEL RIO        PTSUNNY   87  73  62 SE10      29.89F HX  94
MCALLEN        PTSUNNY   86  78  77 E9        29.87F HX  98
HEBBRONVILLE     N/A     85  74  69 SE6       29.89F HX  93
$$

...OTHER TEXAS OBSERVATIONS...

CITY           SKY/WX    TMP DP  RH WIND       PRES   REMARKS
BROWNSVILLE    CLOUDY    80  77  90 W3        29.87F
HOUSTON        MOSUNNY   87  72  60 E8        29.93F HX  93
COL. STATION   MOSUNNY   87  68  52 E3        29.94F HX  90
AUSTIN         PTSUNNY   86  71  60 E8        29.93F HX  91
WACO           PTSUNNY   87  70  56 E8        29.96F HX  92
FORT WORTH     PTSUNNY   91  65  41 S14       29.97F HX  93
WICHITA FALLS  SUNNY     87  69  54 S9        29.97F HX  91
LUBBOCK        LGT RAIN  74  67  78 SE8       30.05F
EL PASO        MOSUNNY   86  62  44 VRB3      30.03F
$$

...MARINE OBSERVATIONS...

STATION/POSITION TIME  SKY/WX   TEMP    WIND        PRES    VSBY  WAVE   SWELL
                                AIR SEA DIR/SP/G                  HT/PER HT/PER
                 (UTC)          (F)     (DEG/KT/KT) (MB)    (MI)  (FT/S) (FT/S)
PORT ARANSAS     2000            82 85   70/ 12/ 13 1012.8F
BUOY 90 E PORT A 2000            81 86   90/ 10/ 12 1012.4F         3/ 6   3/ 6
BUOY 45 SE BAFFI 2000            82 85  140/ 10/ 12 1011.3F         2/ 5   2/ 5
BUOY 200 E PT IS 2000            84 86  280/  6/  8 1011.0F         2/ 6   2/ 6
BUOY 15 E GALVES 2000            82 84   70/ 16/ 19 1012.5F         3/ 6
$$


USA.gov is the U.S. government's official web portal to all federal, state and local government web resources and services.